FW9683 Weather Reports


Display with metric or nautical units.
time (UTC)temp
F
wind
direction
speed
MPH
gust
MPH
rain 1hr
in
rain 24hr
in
rain mn
in
humidity
%
barometer
mb
20260506061557 69 158 1.0 4.0 0.00 0.00 0.00 44 1010.8
20260506044557 71 9 2.0 4.0 0.00 0.00 0.00 41 1010.4
20260506043110 72 162 1.0 4.0 0.00 0.00 0.00 39 1010.3
20260506041558 72 178 2.0 5.0 0.00 0.00 0.00 38 1010.4
20260506040056 73 163 3.0 7.0 0.00 0.00 0.00 37 1009.9
20260506034612 74 165 4.0 9.0 0.00 0.00 0.00 36 1009.8
20260506033055 74 147 6.0 10.0 0.00 0.00 0.00 35 1009.4
20260506031555 74 129 2.0 6.0 0.00 0.00 0.00 35 1009.1
20260506030055 75 139 2.0 5.0 0.00 0.00 0.00 35 1008.9
20260506024556 75 153 2.0 4.0 0.00 0.00 0.00 34 1008.7
20260506023101 76 162 0.0 2.0 0.00 0.00 0.00 32 1008.6
20260506021556 77 325 2.0 5.0 0.00 0.00 0.00 32 1008.6
20260506020058 77 314 2.0 4.0 0.00 0.00 0.00 31 1008.6
20260506014557 78 334 3.0 9.0 0.00 0.00 0.00 30 1008.5
20260506013106 78 239 4.0 11.0 0.00 0.00 0.00 30 1008.4
20260506011558 79 319 9.0 16.0 0.00 0.00 0.00 30 1008.2
20260506010119 79 279 8.0 16.0 0.00 0.00 0.00 29 1008.3
20260506004552 80 279 10.0 16.0 0.00 0.00 0.00 29 1008.3
20260506003056 80 310 12.0 21.0 0.00 0.00 0.00 28 1008.6
20260506001601 79 298 12.0 29.0 0.00 0.00 0.00 28 1008.9
20260506000056 80 272 10.0 28.0 0.00 0.00 0.00 27 1009.2
20260505234556 80 271 17.0 27.0 0.00 0.00 0.00 27 1009.0
20260505233106 80 289 17.0 31.0 0.00 0.00 0.00 27 1009.0
20260505231556 81 290 15.0 32.0 0.00 0.00 0.00 26 1009.0
20260505230100 81 259 15.0 27.0 0.00 0.00 0.00 27 1008.9
20260505224552 81 307 16.0 31.0 0.00 0.00 0.00 27 1008.8
20260505223058 82 257 16.0 30.0 0.00 0.00 0.00 26 1009.0
20260505221555 82 300 20.0 39.0 0.00 0.00 0.00 25 1009.0
20260505220055 82 259 19.0 29.0 0.00 0.00 0.00 24 1009.0
20260505214609 82 277 16.0 31.0 0.00 0.00 0.00 24 1009.2
20260505213059 82 261 17.0 31.0 0.00 0.00 0.00 25 1009.2
20260505211552 83 252 15.0 28.0 0.00 0.00 0.00 24 1009.1
20260505210055 84 265 16.0 26.0 0.00 0.00 0.00 23 1009.5
20260505204553 84 262 18.0 30.0 0.00 0.00 0.00 22 1009.4
20260505203050 84 265 19.0 30.0 0.00 0.00 0.00 22 1009.5
20260505201557 84 219 12.0 28.0 0.00 0.00 0.00 22 1009.6
20260505200056 84 284 15.0 20.0 0.00 0.00 0.00 23 1009.6
20260505194553 83 229 13.0 19.0 0.00 0.00 0.00 23 1009.6
20260505193053 83 271 10.0 21.0 0.00 0.00 0.00 23 1009.8
20260505191605 84 262 15.0 26.0 0.00 0.00 0.00 23 1009.9
20260505184558 84 248 12.0 24.0 0.00 0.00 0.00 24 1010.1
20260505183114 84 275 14.0 27.0 0.00 0.00 0.00 24 1010.1
20260505181553 83 315 11.0 26.0 0.00 0.00 0.00 26 1010.3
20260505180057 83 306 13.0 22.0 0.00 0.00 0.00 24 1010.5
20260505174551 83 284 12.0 24.0 0.00 0.00 0.00 25 1010.3
20260505173054 82 298 13.0 26.0 0.00 0.00 0.00 26 1010.7
20260505171558 82 265 13.0 24.0 0.00 0.00 0.00 25 1010.7
20260505170053 82 301 12.0 18.0 0.00 0.00 0.00 25 1010.7
20260505164553 81 297 8.0 17.0 0.00 0.00 0.00 27 1010.6
20260505163053 80 270 9.0 16.0 0.00 0.00 0.00 29 1010.7
20260505161615 79 243 8.0 16.0 0.00 0.00 0.00 31 1010.6
20260505153056 77 265 8.0 15.0 0.00 0.00 0.00 33 1010.2
20260505151614 76 266 9.0 14.0 0.00 0.00 0.00 33 1010.1
20260505124555 65 234 5.0 8.0 0.00 0.00 0.00 78 1009.1
20260505123051 65 221 4.0 7.0 0.00 0.00 0.00 78 1008.8
20260505121553 65 207 3.0 7.0 0.00 0.00 0.00 78 1008.7
20260505120110 65 225 2.0 6.0 0.00 0.00 0.00 79 1008.6
20260505114553 65 193 3.0 7.0 0.00 0.00 0.00 79 1008.2
20260505113052 66 221 3.0 7.0 0.00 0.00 0.00 78 1008.2
20260505111552 66 227 3.0 8.0 0.00 0.00 0.00 78 1008.2
20260505101553 67 223 9.0 14.0 0.00 0.00 0.00 78 1008.0
20260505100051 67 227 7.0 14.0 0.00 0.00 0.00 77 1008.1
20260505094556 68 230 6.0 12.0 0.00 0.00 0.00 76 1008.1
20260505093056 68 232 7.0 11.0 0.00 0.00 0.00 75 1007.8
20260505091601 69 225 8.0 14.0 0.00 0.00 0.00 74 1007.8
20260505090053 69 203 8.0 15.0 0.00 0.00 0.00 74 1007.9
20260505084551 69 227 8.0 15.0 0.00 0.00 0.00 73 1008.0
20260505083054 69 221 9.0 18.0 0.00 0.00 0.00 73 1007.9
20260505081604 70 208 10.0 18.0 0.00 0.00 0.00 71 1008.0
20260505080053 70 226 10.0 19.0 0.00 0.00 0.00 70 1008.2
20260505074558 70 209 11.0 20.0 0.00 0.00 0.00 69 1008.2
20260505073103 71 186 9.0 21.0 0.00 0.00 0.00 68 1008.0
20260505071558 71 221 11.0 21.0 0.00 0.00 0.00 66 1008.3
20260505070055 71 225 9.0 16.0 0.00 0.00 0.00 65 1008.5